Weather History for Abbotsford, BC

Change the Weather History Date:

Monday, November 26, 2012

  Actual Average Record
Temperature  
Mean Temperature 38 °F -  
Max Temperature 45 °F 43 °F 55 °F (2014)
Min Temperature 32 °F 32 °F 21 °F (2006)
Degree Days  
Heating Degree Days 26    
Moisture  
Dew Point 30 °F    
Average Humidity 75    
Maximum Humidity 93    
Minimum Humidity 53    
Precipitation  
Precipitation 0.00 in 0.29 in - ()
Sea Level Pressure  
Sea Level Pressure 30.16 in    
Wind  
Wind Speed 6 mph ()    
Max Wind Speed 10 mph    
Max Gust Speed -    
Visibility 14.2 miles    
Events      
Averages and records for this station are not official NWS values.
T = Trace of Precipitation, MM = Missing Value Source: Averaged Metar Reports

Daily Weather History Graph

Daily Weather History Graph

Search for Another Location

Airport:

Trip Planner

Search our weather history database for the weather conditions in past years. The results will help you decide how hot, cold, wet, or windy it might be!

Date:

Astronomy

Nov. 26, 2012 Rise Set
Actual Time 7:36 AM PST 4:17 PM PST
Civil Twilight 7:00 AM PST 4:53 PM PST
Nautical Twilight 6:20 AM PST 5:32 PM PST
Astronomical Twilight 5:42 AM PST 6:10 PM PST
Moon 3:17 PM PST 5:46 AM PST
Length of Visible Light 9h 52m
Length of Day
8h 40m
Waxing Gibbous, 97% of the Moon is Illuminated
Nov 26
Waxing Gibbous
Nov 28
Full
Dec 6
Last Quarter
Dec 13
New
Dec 19
First Quarter

Hourly Weather History & Observations

Time (PST) Temp. Windchill Dew Point Humidity Pressure Visibility Wind Dir Wind Speed Gust Speed Precip Events Conditions
12:00 AM 35.6 °F 28.6 °F 32.0 °F 87% 30.29 in 15.0 mi NNE 9.2 mph - N/A   Clear
1:00 AM 33.8 °F 27.7 °F 32.0 °F 93% 30.27 in 15.0 mi North 6.9 mph - N/A   Clear
2:00 AM 33.8 °F 27.7 °F 30.2 °F 87% 30.26 in 15.0 mi NNE 6.9 mph - N/A   Clear
3:00 AM 33.8 °F 27.7 °F 30.2 °F 87% 30.25 in 15.0 mi NNE 6.9 mph - N/A   Clear
4:00 AM 34 °F - 30 °F 79% 30.23 in 15 mi NNE 5.8 mph - -  
4:00 AM 33.8 °F 27.7 °F 30.2 °F 87% 30.23 in 15.0 mi North 6.9 mph - N/A   Clear
5:00 AM 33.8 °F 29.6 °F 30.2 °F 87% 30.24 in 15.0 mi North 4.6 mph - N/A   Clear
6:00 AM 33.8 °F 29.6 °F 30.2 °F 87% 30.22 in 15.0 mi NE 4.6 mph - N/A   Clear
7:00 AM 32.0 °F 28.7 °F 28.4 °F 87% 30.21 in 30.0 mi NE 3.5 mph - N/A   Partly Cloudy
8:00 AM 33.8 °F 29.6 °F 28.4 °F 81% 30.19 in 30.0 mi NE 4.6 mph - N/A   Mostly Cloudy
9:00 AM 35.6 °F 30.7 °F 30.2 °F 81% 30.17 in 30.0 mi NE 5.8 mph - N/A   Mostly Cloudy
10:00 AM 40 °F - 31 °F 61% 30.18 in 28 mi NE 3.5 mph - -   Scattered Clouds
10:00 AM 39.2 °F 37.0 °F 32.0 °F 75% 30.17 in 30.0 mi NE 3.5 mph - N/A   Mostly Cloudy
11:00 AM 42.8 °F 39.3 °F 30.2 °F 61% 30.16 in 30.0 mi NNE 5.8 mph - N/A   Mostly Cloudy
12:00 PM 44.6 °F - 30.2 °F 57% 30.15 in 30.0 mi Calm Calm - N/A   Mostly Cloudy
1:00 PM 44.6 °F 39.2 °F 30.2 °F 57% 30.14 in 30.0 mi North 10.4 mph - N/A   Mostly Cloudy
2:00 PM 44.6 °F 39.2 °F 30.2 °F 57% 30.12 in 30.0 mi NNE 10.4 mph - N/A   Scattered Clouds
3:00 PM 44.6 °F 40.2 °F 30.2 °F 57% 30.10 in 30.0 mi NNE 8.1 mph - N/A   Scattered Clouds
4:00 PM 42 °F - 31 °F 53% 30.10 in 28 mi NNE 5.8 mph - -   Scattered Clouds
4:00 PM 42.8 °F 40.1 °F 30.2 °F 61% 30.10 in 30.0 mi NNE 4.6 mph - N/A   Mostly Cloudy
5:00 PM 39.2 °F 35.0 °F 30.2 °F 70% 30.10 in 10.0 mi NE 5.8 mph - N/A   Partly Cloudy
6:00 PM 37.4 °F 32.1 °F 30.2 °F 75% 30.09 in 10.0 mi NNE 6.9 mph - N/A   Partly Cloudy
7:00 PM 39.2 °F 35.9 °F 30.2 °F 70% 30.09 in 10.0 mi NE 4.6 mph - N/A   Partly Cloudy
8:00 PM 37.4 °F 34.9 °F 30.2 °F 75% 30.10 in 15.0 mi NNW 3.5 mph - N/A   Scattered Clouds
9:00 PM 35.6 °F - 30.2 °F 81% 30.10 in 15.0 mi Variable 2.3 mph - N/A   Partly Cloudy
10:00 PM 37 °F - 31 °F 69% 30.11 in 15 mi NNE 6.9 mph - -  
10:00 PM 37.4 °F 32.1 °F 30.2 °F 75% 30.11 in 15.0 mi NNE 6.9 mph - N/A   Clear
10:43 PM 35.6 °F 31.7 °F 30.2 °F 81% 30.11 in 15.0 mi North 4.6 mph - N/A   Scattered Clouds
11:00 PM 35.6 °F 29.9 °F 30.2 °F 81% 30.11 in 15.0 mi North 6.9 mph - N/A   Partly Cloudy
11:04 PM 35.6 °F 30.7 °F 30.2 °F 81% 30.11 in 15.0 mi North 5.8 mph - N/A   Scattered Clouds